Time,TemperatureF,DewpointF,PressureIn,WindDirection,WindDirectionDegrees,WindSpeedMPH,WindSpeedGustMPH,Humidity,HourlyPrecipIn,Conditions,Clouds,dailyrainin,SoftwareType,DateUTC
2013-07-10 00:00:00,72.1,61.0,17.72,North,357,3.6,3.6,68,0.00,,---,0.00,VWS V14.01,2013-07-10 05:00:00,
2013-07-10 00:10:00,71.8,60.7,17.72,NW,306,2.7,2.7,68,0.00,,---,0.00,VWS V14.01,2013-07-10 05:10:00,
2013-07-10 00:20:00,71.2,60.2,17.72,WSW,247,7.2,7.2,68,0.00,,---,0.00,VWS V14.01,2013-07-10 05:20:00,
2013-07-10 00:25:00,71.1,60.4,17.72,WNW,282,0.0,0.0,69,0.00,,---,0.00,VWS V14.01,2013-07-10 05:25:00,
2013-07-10 00:35:00,70.5,59.9,17.72,NNW,327,5.4,5.4,69,0.00,,---,0.00,VWS V14.01,2013-07-10 05:35:00,
2013-07-10 00:40:00,70.7,59.6,17.72,WNW,296,2.7,2.7,68,0.00,,---,0.00,VWS V14.01,2013-07-10 05:40:00,
2013-07-10 00:45:00,70.5,59.0,17.72,North,4,3.1,3.1,67,0.00,,---,0.00,VWS V14.01,2013-07-10 05:45:00,
2013-07-10 00:55:00,70.0,58.5,17.72,North,357,4.0,4.0,67,0.00,,---,0.00,VWS V14.01,2013-07-10 05:55:00,
2013-07-10 01:05:00,69.8,57.1,17.72,NW,307,3.1,3.1,64,0.00,,---,0.00,VWS V14.01,2013-07-10 06:05:00,
2013-07-10 01:10:00,69.4,56.8,17.72,West,262,3.6,3.6,64,0.00,,---,0.00,VWS V14.01,2013-07-10 06:10:00,
2013-07-10 01:20:00,68.9,56.2,17.72,WNW,297,4.0,4.0,64,0.00,,---,0.00,VWS V14.01,2013-07-10 06:20:00,
2013-07-10 01:25:00,68.7,56.1,17.72,SSW,196,2.7,2.7,64,0.00,,---,0.00,VWS V14.01,2013-07-10 06:25:00,
2013-07-10 01:30:00,68.5,55.5,17.72,NW,304,3.1,3.1,63,0.00,,---,0.00,VWS V14.01,2013-07-10 06:30:00,
2013-07-10 01:40:00,68.0,55.0,17.72,NNW,345,3.1,3.1,63,0.00,,---,0.00,VWS V14.01,2013-07-10 06:40:00,
2013-07-10 01:45:00,67.8,55.2,17.72,West,271,2.7,2.7,64,0.00,,---,0.00,VWS V14.01,2013-07-10 06:45:00,
2013-07-10 01:55:00,67.6,55.5,17.72,WNW,294,3.1,3.1,65,0.00,,---,0.00,VWS V14.01,2013-07-10 06:55:00,
2013-07-10 02:05:00,67.3,54.7,17.72,North,10,2.7,2.7,64,0.00,,---,0.00,VWS V14.01,2013-07-10 07:05:00,
2013-07-10 02:10:00,67.1,55.0,17.72,NW,325,4.0,4.0,65,0.00,,---,0.00,VWS V14.01,2013-07-10 07:10:00,
2013-07-10 02:15:00,66.9,53.9,17.72,NW,325,4.9,4.9,63,0.00,,---,0.00,VWS V14.01,2013-07-10 07:15:00,
2013-07-10 02:20:00,66.6,53.6,17.72,NW,326,4.0,4.0,63,0.00,,---,0.00,VWS V14.01,2013-07-10 07:20:00,
2013-07-10 02:25:00,66.4,53.4,17.72,NNW,341,2.7,2.7,63,0.00,,---,0.00,VWS V14.01,2013-07-10 07:25:00,
2013-07-10 02:30:00,66.2,53.7,17.72,NNW,328,3.6,3.6,64,0.00,,---,0.00,VWS V14.01,2013-07-10 07:30:00,
2013-07-10 02:40:00,66.2,54.5,17.72,NNW,334,3.1,3.1,66,0.00,,---,0.00,VWS V14.01,2013-07-10 07:40:00,
2013-07-10 02:50:00,65.8,54.6,17.72,NNW,348,4.0,4.0,67,0.00,,---,0.00,VWS V14.01,2013-07-10 07:50:00,
2013-07-10 02:55:00,65.7,54.4,17.72,NNW,340,2.7,2.7,67,0.00,,---,0.00,VWS V14.01,2013-07-10 07:55:00,
2013-07-10 03:05:00,65.3,54.5,17.72,NNW,341,0.0,0.0,68,0.00,,---,0.00,VWS V14.01,2013-07-10 08:05:00,
2013-07-10 03:15:00,65.1,54.3,17.72,West,263,2.7,2.7,68,0.00,,---,0.00,VWS V14.01,2013-07-10 08:15:00,
2013-07-10 03:25:00,64.8,54.0,17.72,NNW,334,3.1,3.1,68,0.00,,---,0.00,VWS V14.01,2013-07-10 08:25:00,
2013-07-10 03:30:00,64.8,54.4,17.72,NNW,342,0.0,0.0,69,0.00,,---,0.00,VWS V14.01,2013-07-10 08:30:00,
2013-07-10 03:40:00,64.8,54.4,17.72,North,349,0.0,0.0,69,0.00,,---,0.00,VWS V14.01,2013-07-10 08:40:00,
2013-07-10 03:50:00,64.4,54.0,17.72,WSW,252,3.1,3.1,69,0.00,,---,0.00,VWS V14.01,2013-07-10 08:50:00,
2013-07-10 03:55:00,64.2,53.8,17.72,NW,322,3.1,3.1,69,0.00,,---,0.00,VWS V14.01,2013-07-10 08:55:00,
2013-07-10 04:00:00,64.0,54.1,17.72,NNE,12,2.7,2.7,70,0.00,,---,0.00,VWS V14.01,2013-07-10 09:00:00,
2013-07-10 04:05:00,63.9,53.9,17.72,NNW,334,0.0,0.0,70,0.00,,---,0.00,VWS V14.01,2013-07-10 09:05:00,
2013-07-10 04:15:00,63.7,53.7,17.72,NW,322,0.0,0.0,70,0.00,,---,0.00,VWS V14.01,2013-07-10 09:15:00,
2013-07-10 04:20:00,63.5,53.5,17.72,NNW,345,2.2,2.2,70,0.00,,---,0.00,VWS V14.01,2013-07-10 09:20:00,
2013-07-10 04:25:00,63.5,53.5,17.72,NNW,343,4.9,4.9,70,0.00,,---,0.00,VWS V14.01,2013-07-10 09:25:00,
2013-07-10 04:35:00,63.3,53.8,17.72,WNW,295,2.7,2.7,71,0.00,,---,0.00,VWS V14.01,2013-07-10 09:35:00,
2013-07-10 04:40:00,63.3,53.8,17.72,NNW,333,4.0,4.0,71,0.00,,---,0.00,VWS V14.01,2013-07-10 09:40:00,
2013-07-10 04:45:00,63.1,53.6,17.72,NNW,344,0.0,0.0,71,0.00,,---,0.00,VWS V14.01,2013-07-10 09:45:00,
2013-07-10 04:50:00,63.1,53.6,17.72,NW,317,3.1,3.1,71,0.00,,---,0.00,VWS V14.01,2013-07-10 09:50:00,
2013-07-10 05:00:00,63.0,53.4,17.72,NW,316,0.0,0.0,71,0.00,,---,0.00,VWS V14.01,2013-07-10 10:00:00,
2013-07-10 05:10:00,62.8,53.2,17.72,WNW,300,2.2,2.2,71,0.00,,---,0.00,VWS V14.01,2013-07-10 10:10:00,
2013-07-10 05:15:00,62.6,53.1,17.72,North,349,2.2,2.2,71,0.00,,---,0.00,VWS V14.01,2013-07-10 10:15:00,
2013-07-10 05:25:00,62.4,52.9,17.72,NW,305,0.0,0.0,71,0.00,,---,0.00,VWS V14.01,2013-07-10 10:25:00,
2013-07-10 05:30:00,62.2,52.7,17.72,WNW,297,0.0,0.0,71,0.00,,---,0.00,VWS V14.01,2013-07-10 10:30:00,
2013-07-10 05:35:00,61.9,52.8,17.72,NW,316,0.0,0.0,72,0.00,,---,0.00,VWS V14.01,2013-07-10 10:35:00,
2013-07-10 05:45:00,61.9,52.8,17.72,WNW,296,0.0,0.0,72,0.00,,---,0.00,VWS V14.01,2013-07-10 10:45:00,
2013-07-10 05:50:00,61.9,52.8,17.72,West,262,0.0,0.0,72,0.00,,---,0.00,VWS V14.01,2013-07-10 10:50:00,
2013-07-10 06:00:00,61.7,53.0,17.72,NNW,329,2.2,2.2,73,0.00,,---,0.00,VWS V14.01,2013-07-10 11:00:00,
2013-07-10 06:05:00,61.7,53.0,17.72,NNW,330,2.7,2.7,73,0.00,,---,0.00,VWS V14.01,2013-07-10 11:05:00,
2013-07-10 06:10:00,61.7,53.3,17.72,NNW,334,0.0,0.0,74,0.00,,---,0.00,VWS V14.01,2013-07-10 11:10:00,
2013-07-10 06:15:00,61.9,53.9,17.72,West,277,0.0,0.0,75,0.00,,---,0.00,VWS V14.01,2013-07-10 11:15:00,
2013-07-10 06:25:00,61.9,53.9,17.72,NW,325,0.0,0.0,75,0.00,,---,0.00,VWS V14.01,2013-07-10 11:25:00,
2013-07-10 06:35:00,61.9,54.2,17.72,SW,223,0.0,0.0,76,0.00,,---,0.00,VWS V14.01,2013-07-10 11:35:00,
2013-07-10 06:45:00,61.9,54.6,17.72,West,278,0.0,0.0,77,0.00,,---,0.00,VWS V14.01,2013-07-10 11:45:00,
2013-07-10 06:55:00,61.9,55.0,17.72,WNW,292,0.0,0.0,78,0.00,,---,0.00,VWS V14.01,2013-07-10 11:55:00,
2013-07-10 07:00:00,62.1,55.1,17.72,WNW,282,2.2,2.2,78,0.00,,---,0.00,VWS V14.01,2013-07-10 12:00:00,
2013-07-10 07:10:00,62.2,55.3,17.72,NNW,342,0.0,0.0,78,0.00,,---,0.00,VWS V14.01,2013-07-10 12:10:00,
2013-07-10 07:20:00,62.4,55.8,17.72,NW,319,0.0,0.0,79,0.00,,---,0.00,VWS V14.01,2013-07-10 12:20:00,
2013-07-10 07:30:00,62.6,55.7,17.72,West,266,0.0,0.0,78,0.00,,---,0.00,VWS V14.01,2013-07-10 12:30:00,
2013-07-10 07:35:00,62.8,55.8,17.72,NNW,342,2.7,2.7,78,0.00,,---,0.00,VWS V14.01,2013-07-10 12:35:00,
2013-07-10 07:45:00,63.0,55.7,17.72,WNW,284,3.6,3.6,77,0.00,,---,0.00,VWS V14.01,2013-07-10 12:45:00,
2013-07-10 07:50:00,63.1,55.8,17.72,NNW,346,2.2,2.2,77,0.00,,---,0.00,VWS V14.01,2013-07-10 12:50:00,
2013-07-10 07:55:00,63.3,56.0,17.72,NNW,340,0.0,0.0,77,0.00,,---,0.00,VWS V14.01,2013-07-10 12:55:00,
2013-07-10 08:05:00,63.5,55.8,17.72,NNW,330,2.7,2.7,76,0.00,,---,0.00,VWS V14.01,2013-07-10 13:05:00,
2013-07-10 08:10:00,63.7,55.6,17.72,WNW,303,0.0,0.0,75,0.00,,---,0.00,VWS V14.01,2013-07-10 13:10:00,
2013-07-10 08:20:00,64.2,56.1,17.72,WSW,251,0.0,0.0,75,0.00,,---,0.00,VWS V14.01,2013-07-10 13:20:00,
2013-07-10 08:30:00,64.6,55.7,17.72,WSW,250,3.1,3.1,73,0.00,,---,0.00,VWS V14.01,2013-07-10 13:30:00,
2013-07-10 08:35:00,64.8,55.5,17.72,NNW,337,0.0,0.0,72,0.00,,---,0.00,VWS V14.01,2013-07-10 13:35:00,
2013-07-10 08:40:00,64.9,55.3,17.72,North,353,3.1,3.1,71,0.00,,---,0.00,VWS V14.01,2013-07-10 13:40:00,
2013-07-10 08:50:00,65.5,55.8,17.72,NNW,342,3.1,3.1,71,0.00,,---,0.00,VWS V14.01,2013-07-10 13:50:00,
2013-07-10 08:55:00,65.8,55.8,17.72,NNW,337,3.6,3.6,70,0.00,,---,0.00,VWS V14.01,2013-07-10 13:55:00,
2013-07-10 09:05:00,66.4,55.5,17.72,WSW,254,4.0,4.0,68,0.00,,---,0.00,VWS V14.01,2013-07-10 14:05:00,
2013-07-10 09:15:00,66.9,55.6,17.72,NNW,331,3.6,3.6,67,0.00,,---,0.00,VWS V14.01,2013-07-10 14:15:00,
2013-07-10 09:20:00,67.1,55.4,17.72,WSW,258,2.7,2.7,66,0.00,,---,0.00,VWS V14.01,2013-07-10 14:20:00,
2013-07-10 09:30:00,67.5,55.7,17.72,NNW,327,0.0,0.0,66,0.00,,---,0.00,VWS V14.01,2013-07-10 14:30:00,
2013-07-10 09:40:00,68.0,55.4,17.72,North,353,4.0,4.0,64,0.00,,---,0.00,VWS V14.01,2013-07-10 14:40:00,
2013-07-10 09:50:00,68.4,55.7,17.72,NNW,332,5.4,5.4,64,0.00,,---,0.00,VWS V14.01,2013-07-10 14:50:00,
2013-07-10 10:00:00,68.5,55.0,17.72,NW,314,3.1,3.1,62,0.00,,---,0.00,VWS V14.01,2013-07-10 15:00:00,
2013-07-10 10:05:00,68.7,55.6,17.72,West,260,4.0,4.0,63,0.00,,---,0.00,VWS V14.01,2013-07-10 15:05:00,
2013-07-10 10:10:00,68.7,55.6,17.72,WNW,285,3.6,3.6,63,0.00,,---,0.00,VWS V14.01,2013-07-10 15:10:00,
2013-07-10 10:15:00,69.1,55.5,17.72,WSW,241,5.4,5.4,62,0.00,,---,0.00,VWS V14.01,2013-07-10 15:15:00,
2013-07-10 10:25:00,69.4,54.0,17.72,NNW,332,2.2,2.2,58,0.00,,---,0.00,VWS V14.01,2013-07-10 15:25:00,
2013-07-10 10:35:00,69.8,56.2,17.72,NW,306,4.9,4.9,62,0.00,,---,0.00,VWS V14.01,2013-07-10 15:35:00,
2013-07-10 10:40:00,70.2,55.2,17.72,North,353,3.1,3.1,59,0.00,,---,0.00,VWS V14.01,2013-07-10 15:40:00,
2013-07-10 10:50:00,70.5,52.6,17.72,West,263,5.4,5.4,53,0.00,,---,0.00,VWS V14.01,2013-07-10 15:50:00,
2013-07-10 11:00:00,71.2,51.7,17.72,WSW,257,5.4,5.4,50,0.00,,---,0.00,VWS V14.01,2013-07-10 16:00:00,
2013-07-10 11:05:00,71.6,52.0,17.72,West,269,3.1,3.1,50,0.00,,---,0.00,VWS V14.01,2013-07-10 16:05:00,
2013-07-10 11:15:00,72.5,50.6,17.72,North,4,5.4,5.4,46,0.00,,---,0.00,VWS V14.01,2013-07-10 16:15:00,
2013-07-10 11:25:00,73.6,51.0,17.72,SW,234,4.9,4.9,45,0.00,,---,0.00,VWS V14.01,2013-07-10 16:25:00,
2013-07-10 11:30:00,73.9,48.8,17.72,NNW,335,4.0,4.0,41,0.00,,---,0.00,VWS V14.01,2013-07-10 16:30:00,
2013-07-10 11:40:00,74.7,50.1,17.72,North,2,3.1,3.1,42,0.00,,---,0.00,VWS V14.01,2013-07-10 16:40:00,
2013-07-10 11:45:00,75.0,50.4,17.72,NNW,330,3.1,3.1,42,0.00,,---,0.00,VWS V14.01,2013-07-10 16:45:00,
2013-07-10 11:50:00,75.0,50.4,17.72,WSW,255,7.2,7.2,42,0.00,,---,0.00,VWS V14.01,2013-07-10 16:50:00,
2013-07-10 12:00:00,75.4,50.1,17.72,North,349,4.0,4.0,41,0.00,,---,0.00,VWS V14.01,2013-07-10 17:00:00,
2013-07-10 12:10:00,75.2,47.9,17.72,WNW,283,3.1,3.1,38,0.00,,---,0.00,VWS V14.01,2013-07-10 17:10:00,
2013-07-10 12:20:00,75.2,48.6,17.72,NW,318,3.6,3.6,39,0.00,,---,0.00,VWS V14.01,2013-07-10 17:20:00,
2013-07-10 12:30:00,75.4,48.7,17.72,North,7,3.1,3.1,39,0.00,,---,0.00,VWS V14.01,2013-07-10 17:30:00,
2013-07-10 12:35:00,75.4,49.4,17.72,NNW,348,5.8,5.8,40,0.00,,---,0.00,VWS V14.01,2013-07-10 17:35:00,
2013-07-10 12:45:00,75.7,51.0,17.72,SW,232,5.8,5.8,42,0.00,,---,0.00,VWS V14.01,2013-07-10 17:45:00,
2013-07-10 12:55:00,75.9,49.9,17.72,WSW,249,3.6,3.6,40,0.00,,---,0.00,VWS V14.01,2013-07-10 17:55:00,
2013-07-10 13:00:00,75.9,49.9,17.72,WNW,288,4.0,4.0,40,0.00,,---,0.00,VWS V14.01,2013-07-10 18:00:00,
2013-07-10 13:10:00,76.3,50.2,17.72,WNW,286,5.8,5.8,40,0.00,,---,0.00,VWS V14.01,2013-07-10 18:10:00,
2013-07-10 13:20:00,76.8,49.3,17.72,SW,233,2.2,2.2,38,0.00,,---,0.00,VWS V14.01,2013-07-10 18:20:00,
2013-07-10 13:25:00,76.8,50.0,17.72,WNW,291,0.0,0.0,39,0.00,,---,0.00,VWS V14.01,2013-07-10 18:25:00,
2013-07-10 13:35:00,76.3,49.5,17.72,WSW,250,2.7,2.7,39,0.00,,---,0.00,VWS V14.01,2013-07-10 18:35:00,
2013-07-10 13:45:00,76.1,49.4,17.72,WSW,242,4.0,4.0,39,0.00,,---,0.00,VWS V14.01,2013-07-10 18:45:00,
2013-07-10 13:55:00,76.3,48.8,17.72,West,276,0.0,0.0,38,0.00,,---,0.00,VWS V14.01,2013-07-10 18:55:00,
2013-07-10 14:05:00,76.1,48.7,17.72,NW,324,4.0,4.0,38,0.00,,---,0.00,VWS V14.01,2013-07-10 19:05:00,
2013-07-10 14:10:00,76.1,50.0,17.72,SW,228,3.1,3.1,40,0.00,,---,0.00,VWS V14.01,2013-07-10 19:10:00,
2013-07-10 14:20:00,76.5,50.4,17.72,SW,226,0.0,0.0,40,0.00,,---,0.00,VWS V14.01,2013-07-10 19:20:00,
2013-07-10 14:30:00,76.6,49.8,17.72,WNW,291,3.6,3.6,39,0.00,,---,0.00,VWS V14.01,2013-07-10 19:30:00,
2013-07-10 14:40:00,76.8,48.6,17.72,SSE,161,2.2,2.2,37,0.00,,---,0.00,VWS V14.01,2013-07-10 19:40:00,
2013-07-10 14:45:00,76.8,47.9,17.72,SE,125,3.6,3.6,36,0.00,,---,0.00,VWS V14.01,2013-07-10 19:45:00,
2013-07-10 14:55:00,76.3,47.4,17.72,West,261,3.1,3.1,36,0.00,,---,0.00,VWS V14.01,2013-07-10 19:55:00,
2013-07-10 15:00:00,76.1,48.7,17.72,NNW,343,2.2,2.2,38,0.00,,---,0.00,VWS V14.01,2013-07-10 20:00:00,
2013-07-10 15:10:00,76.5,51.0,17.72,ENE,72,5.8,5.8,41,0.00,,---,0.00,VWS V14.01,2013-07-10 20:10:00,
2013-07-10 15:20:00,76.6,51.2,17.72,NW,305,6.3,6.3,41,0.00,,---,0.00,VWS V14.01,2013-07-10 20:20:00,
2013-07-10 15:30:00,76.6,49.8,17.72,West,273,4.5,4.5,39,0.00,,---,0.00,VWS V14.01,2013-07-10 20:30:00,
2013-07-10 15:40:00,76.8,50.0,17.72,NNE,33,5.4,5.4,39,0.00,,---,0.00,VWS V14.01,2013-07-10 20:40:00,
2013-07-10 15:45:00,77.0,50.2,17.72,NW,322,4.0,4.0,39,0.00,,---,0.00,VWS V14.01,2013-07-10 20:45:00,
2013-07-10 15:55:00,77.0,50.9,17.72,NNW,346,3.1,3.1,40,0.00,,---,0.00,VWS V14.01,2013-07-10 20:55:00,
2013-07-10 16:00:00,76.8,50.7,17.72,NW,323,4.0,4.0,40,0.00,,---,0.00,VWS V14.01,2013-07-10 21:00:00,
2013-07-10 16:10:00,76.8,51.4,17.72,WNW,298,4.9,4.9,41,0.00,,---,0.00,VWS V14.01,2013-07-10 21:10:00,
2013-07-10 16:20:00,76.5,49.7,17.72,NW,313,0.0,0.0,39,0.00,,---,0.00,VWS V14.01,2013-07-10 21:20:00,
2013-07-10 16:30:00,76.3,49.5,17.72,North,349,2.2,2.2,39,0.00,,---,0.00,VWS V14.01,2013-07-10 21:30:00,
2013-07-10 16:40:00,77.0,49.5,17.72,NNW,337,0.0,0.0,38,0.00,,---,0.00,VWS V14.01,2013-07-10 21:40:00,
2013-07-10 16:45:00,77.0,49.5,17.72,WNW,298,0.0,0.0,38,0.00,,---,0.00,VWS V14.01,2013-07-10 21:45:00,
2013-07-10 16:55:00,77.0,50.9,17.72,NE,34,0.0,0.0,40,0.00,,---,0.00,VWS V14.01,2013-07-10 21:55:00,
2013-07-10 17:05:00,77.0,50.9,17.72,NW,319,0.0,0.0,40,0.00,,---,0.00,VWS V14.01,2013-07-10 22:05:00,
2013-07-10 17:15:00,76.8,51.4,17.72,WSW,255,0.0,0.0,41,0.00,,---,0.00,VWS V14.01,2013-07-10 22:15:00,
2013-07-10 17:20:00,77.0,51.5,17.72,WNW,283,0.0,0.0,41,0.00,,---,0.00,VWS V14.01,2013-07-10 22:20:00,
2013-07-10 17:30:00,76.8,50.7,17.72,NNW,333,2.2,2.2,40,0.00,,---,0.00,VWS V14.01,2013-07-10 22:30:00,
2013-07-10 17:40:00,76.6,50.5,17.72,NW,314,0.0,0.0,40,0.00,,---,0.00,VWS V14.01,2013-07-10 22:40:00,
2013-07-10 17:50:00,76.8,52.0,17.72,North,353,0.0,0.0,42,0.00,,---,0.00,VWS V14.01,2013-07-10 22:50:00,
2013-07-10 18:00:00,76.5,52.3,17.72,WNW,287,0.0,0.0,43,0.00,,---,0.00,VWS V14.01,2013-07-10 23:00:00,
2013-07-10 18:05:00,76.5,52.3,17.72,NW,318,0.0,0.0,43,0.00,,---,0.00,VWS V14.01,2013-07-10 23:05:00,
2013-07-10 18:15:00,76.3,52.8,17.72,WNW,293,0.0,0.0,44,0.00,,---,0.00,VWS V14.01,2013-07-10 23:15:00,
2013-07-10 18:25:00,76.3,52.8,17.72,NNW,328,0.0,0.0,44,0.00,,---,0.00,VWS V14.01,2013-07-10 23:25:00,
2013-07-10 18:35:00,76.1,53.2,17.72,WNW,287,0.0,0.0,45,0.00,,---,0.00,VWS V14.01,2013-07-10 23:35:00,
2013-07-10 18:40:00,75.9,53.1,17.72,North,353,0.0,0.0,45,0.00,,---,0.00,VWS V14.01,2013-07-10 23:40:00,
2013-07-10 18:50:00,75.7,52.9,17.72,NNW,343,0.0,0.0,45,0.00,,---,0.00,VWS V14.01,2013-07-10 23:50:00,
2013-07-10 18:55:00,75.7,52.9,17.72,West,273,0.0,0.0,45,0.00,,---,0.00,VWS V14.01,2013-07-10 23:55:00,
2013-07-10 19:00:00,75.7,52.9,17.72,West,262,0.0,0.0,45,0.00,,---,0.00,VWS V14.01,2013-07-11 00:00:00,
2013-07-10 19:10:00,75.6,53.3,17.72,NNW,345,0.0,0.0,46,0.00,,---,0.00,VWS V14.01,2013-07-11 00:10:00,
2013-07-10 19:15:00,75.4,53.2,17.72,NNW,345,0.0,0.0,46,0.00,,---,0.00,VWS V14.01,2013-07-11 00:15:00,
2013-07-10 19:25:00,75.0,54.6,17.72,NNW,345,0.0,0.0,49,0.00,,---,0.00,VWS V14.01,2013-07-11 00:25:00,
2013-07-10 19:35:00,75.2,55.8,17.72,NNW,345,0.0,0.0,51,0.00,,---,0.00,VWS V14.01,2013-07-11 00:35:00,
2013-07-10 19:40:00,75.2,56.4,17.72,NNW,345,0.0,0.0,52,0.00,,---,0.00,VWS V14.01,2013-07-11 00:40:00,
2013-07-10 19:50:00,75.0,55.7,17.72,NNW,345,0.0,0.0,51,0.00,,---,0.00,VWS V14.01,2013-07-11 00:50:00,
2013-07-10 20:00:00,74.7,55.3,17.72,NNW,345,0.0,0.0,51,0.00,,---,0.00,VWS V14.01,2013-07-11 01:00:00,
2013-07-10 20:10:00,74.5,55.2,17.72,NNW,345,0.0,0.0,51,0.00,,---,0.00,VWS V14.01,2013-07-11 01:10:00,
2013-07-10 20:20:00,74.3,54.5,17.72,NNW,345,0.0,0.0,50,0.00,,---,0.00,VWS V14.01,2013-07-11 01:20:00,
2013-07-10 20:25:00,74.1,54.9,17.72,NNW,345,0.0,0.0,51,0.00,,---,0.00,VWS V14.01,2013-07-11 01:25:00,
2013-07-10 20:35:00,73.9,55.2,17.72,NNW,345,0.0,0.0,52,0.00,,---,0.00,VWS V14.01,2013-07-11 01:35:00,
2013-07-10 20:40:00,73.8,54.5,17.72,NNW,345,0.0,0.0,51,0.00,,---,0.00,VWS V14.01,2013-07-11 01:40:00,
2013-07-10 20:45:00,73.4,54.2,17.72,NNW,345,0.0,0.0,51,0.00,,---,0.00,VWS V14.01,2013-07-11 01:45:00,
2013-07-10 20:50:00,73.2,55.6,17.72,NNW,345,0.0,0.0,54,0.00,,---,0.00,VWS V14.01,2013-07-11 01:50:00,
2013-07-10 21:00:00,72.9,57.2,17.72,NNW,345,0.0,0.0,58,0.00,,---,0.00,VWS V14.01,2013-07-11 02:00:00,
2013-07-10 21:10:00,72.5,55.4,17.72,NNW,345,0.0,0.0,55,0.00,,---,0.00,VWS V14.01,2013-07-11 02:10:00,
2013-07-10 21:15:00,72.3,55.3,17.72,NNW,345,0.0,0.0,55,0.00,,---,0.00,VWS V14.01,2013-07-11 02:15:00,
2013-07-10 21:20:00,72.3,56.2,17.72,NNW,345,0.0,0.0,57,0.00,,---,0.00,VWS V14.01,2013-07-11 02:20:00,
2013-07-10 21:30:00,71.2,58.5,17.72,NNW,345,0.0,0.0,64,0.00,,---,0.00,VWS V14.01,2013-07-11 02:30:00,
2013-07-10 21:40:00,70.7,58.4,17.72,NNW,345,0.0,0.0,65,0.00,,---,0.00,VWS V14.01,2013-07-11 02:40:00,
2013-07-10 21:50:00,70.3,58.0,17.72,NNW,345,0.0,0.0,65,0.00,,---,0.00,VWS V14.01,2013-07-11 02:50:00,
2013-07-10 22:00:00,70.2,58.3,17.72,NNW,345,0.0,0.0,66,0.00,,---,0.00,VWS V14.01,2013-07-11 03:00:00,
2013-07-10 22:05:00,70.0,58.1,17.72,NNW,345,0.0,0.0,66,0.00,,---,0.00,VWS V14.01,2013-07-11 03:05:00,
2013-07-10 22:10:00,70.0,58.1,17.72,NNW,345,0.0,0.0,66,0.00,,---,0.00,VWS V14.01,2013-07-11 03:10:00,
2013-07-10 22:20:00,70.0,58.1,17.72,NNW,345,0.0,0.0,66,0.00,,---,0.00,VWS V14.01,2013-07-11 03:20:00,
2013-07-10 22:25:00,69.8,57.9,17.72,NNW,345,0.0,0.0,66,0.00,,---,0.00,VWS V14.01,2013-07-11 03:25:00,
2013-07-10 22:30:00,69.6,57.3,17.72,NNW,345,0.0,0.0,65,0.00,,---,0.00,VWS V14.01,2013-07-11 03:30:00,
2013-07-10 22:40:00,69.4,57.2,17.72,NNW,345,0.0,0.0,65,0.00,,---,0.00,VWS V14.01,2013-07-11 03:40:00,
2013-07-10 22:50:00,69.3,57.4,17.72,NNW,345,0.0,0.0,66,0.00,,---,0.00,VWS V14.01,2013-07-11 03:50:00,
2013-07-10 22:55:00,69.1,57.7,17.72,NNW,345,0.0,0.0,67,0.00,,---,0.00,VWS V14.01,2013-07-11 03:55:00,
2013-07-10 23:05:00,69.1,57.3,17.72,NNW,345,0.0,0.0,66,0.00,,---,0.00,VWS V14.01,2013-07-11 04:05:00,
2013-07-10 23:10:00,69.1,57.3,17.72,NNW,345,0.0,0.0,66,0.00,,---,0.00,VWS V14.01,2013-07-11 04:10:00,
2013-07-10 23:15:00,68.9,56.7,17.72,NNW,345,0.0,0.0,65,0.00,,---,0.00,VWS V14.01,2013-07-11 04:15:00,
2013-07-10 23:20:00,68.9,56.7,17.72,NNW,345,0.0,0.0,65,0.00,,---,0.00,VWS V14.01,2013-07-11 04:20:00,
2013-07-10 23:30:00,68.7,56.9,17.72,NNW,345,0.0,0.0,66,0.00,,---,0.00,VWS V14.01,2013-07-11 04:30:00,
2013-07-10 23:35:00,68.7,56.9,17.72,NNW,345,0.0,0.0,66,0.00,,---,0.00,VWS V14.01,2013-07-11 04:35:00,
2013-07-10 23:40:00,68.4,56.6,17.72,NNW,345,0.0,0.0,66,0.00,,---,0.00,VWS V14.01,2013-07-11 04:40:00,
2013-07-10 23:50:00,68.0,56.2,17.72,NNW,345,0.0,0.0,66,0.00,,---,0.00,VWS V14.01,2013-07-11 04:50:00,
2013-07-10 23:55:00,68.0,56.7,17.72,NNW,345,0.0,0.0,67,0.00,,---,0.00,VWS V14.01,2013-07-11 04:55:00,